Hauptseite
METAR-TAF:

METAR-TAF

Flughäfen :

Turin, Italien

Flugplatz Turin-Aeritalia

Breite: 45-05-20N, Länge: 007-36-20E, Höhe: 288 m

Beobachtung

Neuester Wetterbericht von vor 9 Stunden und 40 Minuten, um 15:50 UTC
Wind 7 kt aus Südwest
Temperatur 6°C
Luftfeuchtigkeit 87%
Luftdruck 1009 hPa
Sichtweite 10 km oder mehr
Geschlossene Wolkendecke in der Höhe von 4900 ft

METAR: LIMA 241550Z 22007KT 9999 OVC049 06/04 Q1009

Zeit: 02:30 (01:30 UTC)


TAF: fehlend

Wetterbeobachtungen und Prognosen von mehr als 4000 Flughäfen (METAR und TAF Bericht).

Die verfügbaren Stationen werden durch gelbe und rote Markierungen auf der Karte dargestellt.

Führen Sie die Maus auf sie, um den Namen der Station zu sehen.

Darauf klicken, um die Beobachtung von Wetterbeobachtungen und Prognosen zu sehen.

Um die Karte zu ändern : klicken Sie auf den grünen Tasten mit einem schwarzen Kreuz Zum Vergrößern, auf den grünen Button mit einem Gedankenstrich zu verkleinern, oder auf die grünen Pfeile für benachbarte Karten.


METAR-TAF: